Flag for Nepal Weather past 2 weeks in Pokhara, Nepal

Now
77 °F

Thunderstorms. Broken clouds.


Feels Like: 78 °F
Forecast: 64 / 87 °F
Wind: 6 mph from West

Location: Kathmandu Airport

Current Time: Jun 30, 2015 at 9:05:31 PM

Latest Report: Jun 30, 2015 at 7:35 PM


Visibility: 4 mi

Pressure: 29.86 "Hg

Humidity: 83%

Dew point: 72 °F

Location of PokharaLocation

Historic Weather in Pokhara — Graph

°F

Pokhara temperature yesterday

Maximum temperature yesterday: 82 °F (at 12:35 PM)
Minimum temperature yesterday: 72 °F (at 11:35 PM)
Average temperature yesterday: 78 °F

Past Weeks' High & Low Weather Summary

 TemperatureHumidityPressure
High86 °F (Jun 18, 12:35 PM)100% (Jun 25, 6:35 AM)30.09 "Hg (Jun 25, 6:35 AM)
Low66 °F (Jun 16, 5:35 AM)51% (Jun 17, 2:35 PM)29.62 "Hg (Jun 23, 3:35 PM)
Average75 °F80%29.79 "Hg
* Reported Jun 15 7:35 PM — Jun 30 7:35 PM, Pokhara, Weather by CustomWeather, © 2015

Note: Actual official high and low records may vary slightly from our data, if they occured in-between our weather recording intervals... More about our weather records

Advertising

Pokhara weather history for previous 24 hours

 ConditionsComfort  
Time TempWeatherWind HumidityBarometerVisibility
7:35 PM
Tue, Jun 30
77 °FThunderstorms. Broken clouds.6 mph83%29.86 "Hg4 mi
6:35 PM81 °FBroken clouds.6 mph70%29.83 "Hg4 mi
5:35 PM82 °FScattered clouds.10 mph66%29.83 "Hg5 mi
4:35 PM84 °FThunderstorms. Scattered clouds.8 mph62%29.83 "Hg5 mi
3:35 PM86 °FRain. Scattered clouds.9 mph59%29.83 "Hg4 mi
2:35 PM82 °FLight rain. Scattered clouds.6 mph66%29.86 "Hg5 mi
1:35 PM84 °FScattered clouds.7 mph58%29.89 "Hg5 mi
10:35 AM77 °FRain. Scattered clouds.5 mph79%29.95 "Hg4 mi
9:35 AM81 °FRain. Scattered clouds.3 mph70%29.95 "Hg4 mi
8:35 AM77 °FScattered clouds.3 mph74%29.98 "Hg4 mi
7:35 AM75 °FFog.3 mph78%29.95 "Hg3 mi
6:35 AM72 °FLight rain. Broken clouds.2 mph88%29.95 "Hg2 mi
5:35 AM70 °FMostly cloudy.No wind94%29.92 "Hg4 mi
4:35 AM70 °FPartly cloudy.3 mph94%29.92 "Hg4 mi
3:35 AM70 °FPartly cloudy.No wind94%29.92 "Hg4 mi
2:35 AM70 °FPartly cloudy.No wind94%29.92 "Hg4 mi
12:35 AM72 °FPartly cloudy.No wind88%29.95 "Hg4 mi
11:35 PM
Mon, Jun 29
72 °FPartly cloudy.No wind88%29.98 "Hg4 mi
9:35 PM73 °FPassing clouds.5 mph83%29.95 "Hg4 mi
Weather by CustomWeather, © 2015

See weather overviewHow to use our weather pages